When you browse on this site, cookies collect data to enhance your experience and personalize the content and advertising you see.
Visit our Privacy Policy to learn more. By continuing to use the site, you agree to this use of cookies and data.
  • In Hungary
  • List of Countries
  • For 7 days
  • Water Temperature
  • Satellite Maps
  • Weather Map
  • News
  • Weather Widgets
  • user-avatar
    Login

    Hourly Weather Lozno-Oleksandrivka

    Today, 18 July, Thursday

    Time Temperature Precipitation Wind Pressure Humidity
    00:00 +18°C° 0 mm 1 mps 747 mmHg 84%
    01:00 +18°C° 0 mm 1 mps 746 mmHg 84%
    02:00 +16°C° 0 mm 1 mps 746 mmHg 83%
    03:00 +16°C° 0 mm 1 mps 746 mmHg 83%
    04:00 +16°C° 0 mm 1 mps 747 mmHg 83%
    05:00 +16°C° 0 mm 1 mps 747 mmHg 83%
    06:00 +18°C° 0 mm 1 mps 747 mmHg 83%
    07:00 +19°C° 0 mm 2 mps 747 mmHg 75%
    08:00 +21°C° 0 mm 2 mps 747 mmHg 68%
    09:00 +24°C° 0 mm 3 mps 747 mmHg 61%
    10:00 +25°C° 0.2 mm 3 mps 747 mmHg 58%
    11:00 +25°C° 0.2 mm 4 mps 748 mmHg 55%
    12:00 +26°C° 0.2 mm 5 mps 748 mmHg 51%
    13:00 +27°C° 0 mm 5 mps 748 mmHg 50%
    14:00 +27°C° 0 mm 5 mps 748 mmHg 48%
    15:00 +27°C° 0 mm 5 mps 748 mmHg 47%
    16:00 +27°C° 0 mm 4 mps 748 mmHg 49%
    17:00 +27°C° 0 mm 4 mps 748 mmHg 52%
    18:00 +26°C° 0 mm 3 mps 748 mmHg 54%
    19:00 +24°C° 0 mm 3 mps 748 mmHg 60%
    20:00 +21°C° 0 mm 3 mps 749 mmHg 66%
    21:00 +19°C° 0 mm 3 mps 749 mmHg 71%
    22:00 +18°C° 0 mm 2 mps 749 mmHg 75%
    23:00 +17°C° 0 mm 2 mps 750 mmHg 78%

    Tomorrow, 19 July, Friday

    Time Temperature Precipitation Wind Pressure Humidity
    00:00 +17°C° 0 mm 2 mps 750 mmHg 81%
    01:00 +16°C° 0 mm 1 mps 750 mmHg 83%
    02:00 +15°C° 0 mm 1 mps 750 mmHg 84%
    03:00 +15°C° 0 mm 1 mps 751 mmHg 86%
    04:00 +15°C° 0 mm 1 mps 751 mmHg 85%
    05:00 +15°C° 0 mm 1 mps 751 mmHg 84%
    06:00 +16°C° 0 mm 1 mps 751 mmHg 83%
    07:00 +18°C° 0 mm 2 mps 751 mmHg 75%
    08:00 +20°C° 0 mm 2 mps 752 mmHg 68%
    09:00 +22°C° 0 mm 3 mps 752 mmHg 60%
    10:00 +24°C° 0 mm 3 mps 752 mmHg 56%
    11:00 +25°C° 0 mm 4 mps 752 mmHg 52%
    12:00 +26°C° 0 mm 4 mps 752 mmHg 48%
    13:00 +27°C° 0 mm 4 mps 752 mmHg 47%
    14:00 +27°C° 0 mm 4 mps 752 mmHg 45%
    15:00 +27°C° 0 mm 4 mps 752 mmHg 44%
    16:00 +27°C° 0 mm 4 mps 752 mmHg 47%
    17:00 +26°C° 0 mm 4 mps 752 mmHg 51%
    18:00 +26°C° 0 mm 4 mps 752 mmHg 54%
    19:00 +24°C° 0 mm 3 mps 752 mmHg 60%
    20:00 +22°C° 0 mm 3 mps 752 mmHg 66%
    21:00 +20°C° 0 mm 2 mps 753 mmHg 72%
    22:00 +19°C° 0 mm 2 mps 753 mmHg 75%
    23:00 +18°C° 0 mm 2 mps 753 mmHg 78%

    Day after tomorrow, 20 July, Saturday

    Time Temperature Precipitation Wind Pressure Humidity
    00:00 +18°C° 0 mm 2 mps 754 mmHg 81%
    01:00 +17°C° 0 mm 2 mps 754 mmHg 84%
    02:00 +17°C° 0 mm 2 mps 754 mmHg 88%
    03:00 +16°C° 0 mm 2 mps 754 mmHg 91%
    04:00 +16°C° 0 mm 2 mps 754 mmHg 90%
    05:00 +17°C° 0 mm 2 mps 755 mmHg 88%
    06:00 +17°C° 0 mm 2 mps 755 mmHg 87%
    07:00 +19°C° 0 mm 2 mps 755 mmHg 78%
    08:00 +21°C° 0 mm 2 mps 755 mmHg 69%
    09:00 +24°C° 0 mm 2 mps 755 mmHg 60%
    10:00 +25°C° 0 mm 2 mps 756 mmHg 55%
    11:00 +26°C° 0 mm 3 mps 756 mmHg 49%
    12:00 +28°C° 0 mm 3 mps 756 mmHg 43%
    13:00 +28°C° 0 mm 3 mps 756 mmHg 41%
    14:00 +29°C° 0 mm 3 mps 756 mmHg 38%
    15:00 +29°C° 0 mm 3 mps 755 mmHg 36%
    16:00 +29°C° 0 mm 3 mps 755 mmHg 39%
    17:00 +29°C° 0 mm 3 mps 755 mmHg 41%
    18:00 +28°C° 0 mm 3 mps 755 mmHg 43%
    19:00 +26°C° 0 mm 2 mps 755 mmHg 49%
    20:00 +24°C° 0 mm 2 mps 756 mmHg 55%
    21:00 +22°C° 0 mm 1 mps 756 mmHg 61%
    22:00 +21°C° 0 mm 1 mps 756 mmHg 66%
    23:00 +21°C° 0 mm 1 mps 756 mmHg 71%

    21 July, Sunday

    Time Temperature Precipitation Wind Pressure Humidity
    00:00 +18°C° 0 mm 0 mps 756 mmHg 75%
    01:00 +17°C° 0 mm 0 mps 756 mmHg 77%
    02:00 +17°C° 0 mm 0 mps 756 mmHg 78%
    03:00 +17°C° 0 mm 0 mps 756 mmHg 80%
    04:00 +17°C° 0 mm 0 mps 756 mmHg 79%
    05:00 +20°C° 0 mm 1 mps 756 mmHg 79%
    06:00 +20°C° 0 mm 1 mps 756 mmHg 79%
    07:00 +22°C° 0 mm 1 mps 756 mmHg 72%
    08:00 +24°C° 0 mm 1 mps 756 mmHg 65%
    09:00 +25°C° 0 mm 2 mps 756 mmHg 58%
    10:00 +26°C° 0 mm 2 mps 756 mmHg 54%
    11:00 +27°C° 0 mm 2 mps 756 mmHg 49%
    12:00 +28°C° 0 mm 3 mps 756 mmHg 45%
    13:00 +28°C° 0 mm 3 mps 756 mmHg 45%
    14:00 +28°C° 0 mm 3 mps 755 mmHg 45%
    15:00 +29°C° 0 mm 3 mps 755 mmHg 45%
    16:00 +28°C° 0 mm 3 mps 755 mmHg 47%
    17:00 +28°C° 0 mm 3 mps 755 mmHg 49%
    18:00 +28°C° 0 mm 3 mps 755 mmHg 51%
    19:00 +26°C° 0 mm 2 mps 755 mmHg 56%
    20:00 +24°C° 0 mm 2 mps 755 mmHg 61%
    21:00 +21°C° 0 mm 2 mps 755 mmHg 67%
    22:00 +21°C° 0 mm 2 mps 755 mmHg 68%
    23:00 +20°C° 0 mm 2 mps 755 mmHg 69%

    22 July, Monday

    Time Temperature Precipitation Wind Pressure Humidity
    00:00 +19°C° 0 mm 2 mps 755 mmHg 71%
    01:00 +18°C° 0 mm 2 mps 755 mmHg 75%
    02:00 +19°C° 0 mm 1 mps 755 mmHg 79%
    03:00 +18°C° 0 mm 1 mps 755 mmHg 83%
    04:00 +19°C° 0 mm 1 mps 755 mmHg 82%
    05:00 +19°C° 0 mm 1 mps 755 mmHg 81%
    06:00 +19°C° 0 mm 1 mps 755 mmHg 80%
    07:00 +21°C° 0 mm 1 mps 755 mmHg 73%
    08:00 +23°C° 0 mm 1 mps 755 mmHg 67%
    09:00 +25°C° 0 mm 2 mps 755 mmHg 60%
    10:00 +26°C° 0 mm 2 mps 755 mmHg 55%
    11:00 +27°C° 0 mm 2 mps 755 mmHg 50%
    12:00 +28°C° 0 mm 3 mps 755 mmHg 45%
    13:00 +29°C° 0 mm 3 mps 754 mmHg 42%
    14:00 +29°C° 0 mm 3 mps 754 mmHg 40%
    15:00 +30°C° 0 mm 3 mps 754 mmHg 38%
    16:00 +29°C° 0 mm 3 mps 754 mmHg 40%
    17:00 +29°C° 0 mm 3 mps 754 mmHg 43%
    18:00 +28°C° 0 mm 3 mps 753 mmHg 45%
    19:00 +26°C° 0 mm 3 mps 753 mmHg 52%
    20:00 +24°C° 0 mm 2 mps 753 mmHg 58%
    21:00 +21°C° 0 mm 2 mps 753 mmHg 64%
    22:00 +21°C° 0 mm 2 mps 753 mmHg 66%
    23:00 +21°C° 0 mm 1 mps 753 mmHg 69%

    23 July, Tuesday

    Time Temperature Precipitation Wind Pressure Humidity
    00:00 +20°C° 0 mm 1 mps 753 mmHg 72%
    01:00 +20°C° 0 mm 1 mps 753 mmHg 73%
    02:00 +19°C° 0 mm 1 mps 753 mmHg 74%
    03:00 +19°C° 0 mm 1 mps 753 mmHg 76%
    04:00 +19°C° 0 mm 1 mps 753 mmHg 76%
    05:00 +19°C° 0 mm 1 mps 753 mmHg 76%
    06:00 +20°C° 0 mm 1 mps 753 mmHg 76%
    07:00 +22°C° 0 mm 1 mps 753 mmHg 69%
    08:00 +24°C° 0 mm 1 mps 753 mmHg 63%
    09:00 +25°C° 0 mm 1 mps 752 mmHg 56%
    10:00 +26°C° 0 mm 1 mps 752 mmHg 52%
    11:00 +27°C° 0 mm 1 mps 752 mmHg 48%
    12:00 +28°C° 0 mm 2 mps 752 mmHg 44%
    13:00 +28°C° 0 mm 2 mps 752 mmHg 44%
    14:00 +29°C° 0 mm 2 mps 752 mmHg 43%
    15:00 +29°C° 0 mm 2 mps 751 mmHg 43%
    16:00 +28°C° 0 mm 2 mps 751 mmHg 44%
    17:00 +28°C° 0 mm 2 mps 751 mmHg 44%
    18:00 +28°C° 0 mm 2 mps 751 mmHg 45%
    19:00 +26°C° 0 mm 2 mps 751 mmHg 52%
    20:00 +24°C° 0 mm 2 mps 751 mmHg 58%
    21:00 +21°C° 0 mm 2 mps 751 mmHg 65%
    22:00 +21°C° 0 mm 2 mps 751 mmHg 67%
    23:00 +20°C° 0 mm 2 mps 751 mmHg 69%
    Show more